Weather in Podrezchikha

Russia / Kirov Oblast     59°20′49″N   51°28′09″E
temp.,
°C
wind,
m/s
gust,
m/s
humid.,
%
clouds,
%
prec.,
mm/h
press.,
hPa
HPBL,
m
10 april, sat
sat1000:00−3sw249735 0.0 102867
03:00−4ssw139930 0.0 103042
06:00−4ssw119835 0.0 103140
09:00+3s229222 0.0 1031344
12:00+6s23765 0.0 1031945
15:00+7sse2376100 0.0 1031998
18:00+3se2496100 0.0 102956
21:00+1s1399100 0.0 102965
11 april, sun
sun1100:00+1nw11100100 0.0 102727
03:00+1nw1299100 0.1 102756
06:00+1w139788 0.0 1027118
09:00+4wsw23795 0.0 1028496
12:00+7wsw36632 0.0 1028825
15:00+8wsw36630 0.0 1029939
18:00+5sw388425 0.0 1031173
21:00+4sw2792100 0.0 1033164
12 april, mon
mon1200:00+2w119717 0.0 103534
03:00−1nw119839 0.0 103710
06:00+1nw11885 0.0 103837
09:00+7ssw01605 0.0 1039452
12:00+10ssw11447 0.0 1038936
15:00+10s23405 0.0 10381190
18:00+7sse12635 0.0 103711
21:00+4s22865 0.0 103742
13 april, tue
tue1300:00+3s23936 0.0 103759
03:00+3s2495100 0.0 103669
06:00+4sse2791100 0.0 1035176
09:00+8s3776100 0.0 1033384
12:00+12ssw4770100 0.0 1031606
15:00+14ssw486847 0.0 1029841
18:00+12ssw41078100 0.0 1027325
21:00+10ssw41388100 0.0 1027377
14 april, wed
wed1400:00+9ssw3129285 0.0 1026349
03:00+7ssw3109399 0.0 1025235
06:00+7ssw3108569 0.0 1024285
09:00+12sw496289 0.0 1023514
12:00+16sw584914 0.0 10211086
15:00+17sw594448 0.0 10201352
18:00+14sw51258100 0.0 1019522
21:00+13sw51564100 0.0 1018582